Date String (YYYY-MM-DD hh:mm:ss) UTC,Instrument flags,Ambient pressure (hPa),Sample flow (lpm),Bypass flow (lpm),Sample temperature (°C),Ambient temperature (°C),ASC tube jacket temperature (°C),LED temperature (°C),Box temperature (°C),Sample RH (%),Span deviation,Mass concentration (μg/m³),Mass concentration (μg/m³),Mass concentration (μg/m³)
DateTimeUTC,F1_M11,P_M11,Q1_M11,Q2_M11,T1_M11,T2_M11,T3_M11,T4_M11,T5_M11,U1_M11,ZSPAN_M11,X0_M11,X2_M11,X1_M11
2022-04-27 16:00:00,,0824.1,5.00,0.00,28.9,28.2,00.0,37.7,30.7,08.9,0005.7,0035.36,0012.58,0006.24
2022-04-27 16:01:00,,0824.1,4.99,0.00,29.0,28.2,00.0,37.8,30.7,08.5,0005.0,0035.68,0012.58,0006.24
2022-04-27 16:02:00,,0824.1,5.00,0.00,29.0,28.2,00.0,37.8,30.7,08.3,0004.8,0035.49,0012.56,0006.25
2022-04-27 16:03:00,,0824.1,5.02,0.00,29.0,28.2,00.0,37.8,30.8,08.2,0003.9,0034.95,0012.55,0006.25
2022-04-27 16:04:00,,0824.1,4.99,0.00,29.0,28.3,00.0,37.8,30.8,07.8,0003.5,0035.45,0012.62,0006.28
2022-04-27 16:05:00,,0824.1,5.01,0.00,29.0,28.3,00.0,37.8,30.8,08.0,0003.8,0035.24,0012.57,0006.30
2022-04-27 16:06:00,,0824.1,4.98,0.00,29.1,28.3,00.0,37.8,30.8,07.9,0004.0,0035.03,0012.53,0006.33
2022-04-27 16:07:00,,0824.1,5.00,0.00,29.1,28.3,00.0,37.9,30.9,08.0,0003.2,0033.16,0012.46,0006.34
2022-04-27 16:08:00,,0824.0,5.01,0.00,29.1,28.3,00.0,37.9,30.9,07.9,0002.0,0033.97,0012.39,0006.35
2022-04-27 16:09:00,,0824.0,4.99,0.00,29.1,28.4,00.0,37.9,30.9,07.9,0001.0,0034.73,0012.46,0006.38
2022-04-27 16:10:00,,0824.0,4.99,0.00,29.1,28.4,00.0,37.9,30.9,07.7,0000.8,0034.17,0012.26,0006.38
2022-04-27 16:11:00,,0824.0,5.01,0.00,29.1,28.4,00.0,37.9,30.9,07.8,0000.5,0034.10,0012.25,0006.41
2022-04-27 16:12:00,,0824.0,5.01,0.00,29.2,28.4,00.0,37.9,31.0,07.7,0000.8,0033.29,0012.15,0006.42
2022-04-27 16:13:00,,0824.0,4.99,0.00,29.2,28.4,00.0,38.0,31.0,07.6,0001.2,0033.27,0012.13,0006.42
2022-04-27 16:14:00,,0824.0,5.00,0.00,29.2,28.4,00.0,38.0,30.9,07.6,0002.2,0034.71,0012.25,0006.43
2022-04-27 16:15:00,,0824.0,5.02,0.00,29.2,28.4,00.0,38.0,31.0,07.5,0002.7,0034.78,0012.33,0006.44
2022-04-27 16:16:00,,0824.0,5.00,0.00,29.2,28.4,00.0,38.0,31.0,07.7,0002.3,0034.13,0012.23,0006.46
2022-04-27 16:17:00,,0824.0,4.99,0.00,29.2,28.5,00.0,38.0,31.0,07.7,0001.7,0035.20,0012.23,0006.45
2022-04-27 16:18:00,,0824.0,5.02,0.00,29.3,28.5,00.0,38.0,31.0,07.8,0001.8,0036.15,0012.25,0006.45
2022-04-27 16:19:00,,0824.0,5.00,0.00,29.3,28.5,00.0,38.1,31.1,07.8,0002.8,0035.33,0012.22,0006.45
2022-04-27 16:20:00,,0824.0,5.00,0.00,29.3,28.5,00.0,38.1,31.1,07.8,0003.0,0034.49,0012.26,0006.46
2022-04-27 16:21:00,,0824.0,5.01,0.00,29.3,28.5,00.0,38.1,31.1,08.2,0002.2,0035.44,0012.39,0006.49
2022-04-27 16:22:00,,0824.0,5.01,0.00,29.3,28.6,00.0,38.1,31.1,08.0,0002.2,0034.87,0012.33,0006.50
2022-04-27 16:23:00,,0823.9,4.99,0.00,29.4,28.6,00.0,38.1,31.1,07.9,0002.3,0036.24,0012.31,0006.51
2022-04-27 16:24:00,,0824.0,4.99,0.00,29.4,28.6,00.0,38.2,31.1,07.9,0002.2,0037.25,0012.36,0006.54
2022-04-27 16:25:00,,0824.0,5.00,0.00,29.4,28.6,00.0,38.2,31.2,07.6,0002.0,0037.66,0012.37,0006.56
2022-04-27 16:26:00,,0824.0,5.01,0.00,29.4,28.6,00.0,38.2,31.2,07.7,0001.8,0040.29,0012.35,0006.57
2022-04-27 16:27:00,,0824.0,5.00,0.00,29.4,28.6,00.0,38.2,31.2,07.6,0002.0,0041.09,0012.43,0006.56
2022-04-27 16:28:00,,0824.0,4.99,0.00,29.4,28.6,00.0,38.2,31.2,07.5,0002.6,0039.90,0012.44,0006.60
2022-04-27 16:29:00,,0824.0,5.00,0.00,29.4,28.6,00.0,38.2,31.2,07.4,0001.7,0039.80,0012.44,0006.63
2022-04-27 16:30:00,,0824.0,5.01,0.00,29.4,28.6,00.0,38.2,31.2,07.6,0001.4,0039.58,0012.43,0006.65
2022-04-27 16:31:00,,0824.0,5.00,0.00,29.4,28.7,00.0,38.3,31.2,07.9,0003.2,0039.36,0012.39,0006.68
2022-04-27 16:32:00,,0824.0,4.99,0.00,29.5,28.7,00.0,38.3,31.3,07.4,0003.6,0038.35,0012.32,0006.69
2022-04-27 16:33:00,,0824.0,5.01,0.00,29.5,28.7,00.0,38.3,31.3,07.3,0003.6,0039.38,0012.43,0006.72
2022-04-27 16:34:00,,0823.9,5.01,0.00,29.5,28.7,00.0,38.3,31.3,07.6,0004.4,0038.86,0012.54,0006.73
2022-04-27 16:35:00,,0823.9,4.99,0.00,29.5,28.7,00.0,38.3,31.3,07.8,0003.9,0037.73,0012.45,0006.71
2022-04-27 16:36:00,,0823.9,5.02,0.00,29.5,28.7,00.0,38.3,31.3,07.7,0002.7,0036.15,0012.42,0006.71
2022-04-27 16:37:00,,0823.9,4.99,0.00,29.5,28.7,00.0,38.3,31.3,07.7,0001.7,0033.21,0012.35,0006.70
2022-04-27 16:38:00,,0823.9,4.99,0.00,29.5,28.7,00.0,38.3,31.3,07.8,0001.1,0032.79,0012.28,0006.70
2022-04-27 16:39:00,,0823.9,5.01,0.00,29.5,28.7,00.0,38.4,31.3,07.6,0000.4,0033.10,0012.26,0006.67
2022-04-27 16:40:00,,0823.9,5.00,0.00,29.6,28.8,00.0,38.4,31.3,07.8,0000.5,0033.34,0012.31,0006.66
2022-04-27 16:41:00,,0823.8,5.00,0.00,29.6,28.8,00.0,38.4,31.3,07.6,0000.9,0034.43,0012.32,0006.66
2022-04-27 16:42:00,,0823.9,5.01,0.00,29.6,28.8,00.0,38.4,31.3,07.8,0000.1,0035.22,0012.25,0006.63
2022-04-27 16:43:00,,0823.8,4.99,0.00,29.6,28.8,00.0,38.4,31.4,07.6,0000.8,0037.44,0012.36,0006.63
2022-04-27 16:44:00,,0823.9,4.99,0.00,29.6,28.8,00.0,38.4,31.4,07.5,0001.3,0037.54,0012.36,0006.60
2022-04-27 16:45:00,,0823.9,5.01,0.00,29.6,28.9,00.0,38.4,31.4,07.5,0001.0,0036.40,0012.29,0006.61
2022-04-27 16:46:00,,0823.8,4.98,0.00,29.7,28.9,00.0,38.4,31.4,07.6,0001.8,0035.97,0012.33,0006.62
2022-04-27 16:47:00,,0823.8,5.00,0.00,29.7,28.9,00.0,38.5,31.4,07.8,0002.7,0035.82,0012.35,0006.61
2022-04-27 16:48:00,,0823.8,5.01,0.00,29.7,28.9,00.0,38.5,31.4,08.0,0002.9,0034.85,0012.32,0006.61
2022-04-27 16:49:00,,0823.9,5.01,0.00,29.7,28.9,00.0,38.5,31.5,07.6,0002.4,0033.89,0012.33,0006.62
2022-04-27 16:50:00,,0823.8,4.99,0.00,29.7,28.9,00.0,38.5,31.5,07.3,0002.3,0033.70,0012.41,0006.64
2022-04-27 16:51:00,,0823.8,4.99,0.00,29.7,28.9,00.0,38.5,31.5,07.3,0002.8,0033.41,0012.47,0006.64
2022-04-27 16:52:00,,0823.8,5.01,0.00,29.7,28.9,00.0,38.5,31.5,07.5,0002.6,0032.75,0012.50,0006.64
2022-04-27 16:53:00,,0823.7,4.99,0.00,29.7,28.9,00.0,38.6,31.4,07.7,0002.1,0032.14,0012.57,0006.63
2022-04-27 16:54:00,,0823.7,5.00,0.00,29.8,28.9,00.0,38.6,31.5,07.7,0001.3,0030.30,0012.59,0006.63
2022-04-27 16:55:00,,0823.7,5.01,0.00,29.8,28.9,00.0,38.6,31.5,07.4,0000.7,0029.57,0012.65,0006.64
2022-04-27 16:56:00,,0823.7,4.98,0.00,29.8,29.0,00.0,38.6,31.5,07.4,-000.3,0030.10,0012.74,0006.64
2022-04-27 16:57:00,,0823.6,5.01,0.00,29.8,29.0,00.0,38.6,31.5,07.5,-000.6,0030.51,0012.78,0006.66
2022-04-27 16:58:00,,0823.7,4.98,0.00,29.8,29.0,00.0,38.6,31.6,07.6,-000.2,0030.85,0012.79,0006.68
2022-04-27 16:59:00,,0823.7,5.01,0.00,29.8,29.0,00.0,38.6,31.5,07.6,0001.3,0031.20,0012.83,0006.68
